Regional Weather Roundup
Issued by NWS

Home | Current Version | Previous Version | Graphics & Text | Print | Product List | Glossary On
Versions: 1 2 3 4 5 6 7 8 9 10 11 12 13 14 15 16 17 18 19 20 21 22 23 24 25 26 27 28 29 30 31 32 33 34 35 36 37 38 39 40 41 42 43 44 45 46 47 48 49 50
000
ASUS43 KLSX 241407
RWRMO

WEATHER SUMMARY FOR MISSOURI
NATIONAL WEATHER SERVICE SPRINGFIELD MO
900 AM CDT SUN JUL 24 2016

NOTE: "FAIR" INDICATES FEW OR NO CLOUDS BELOW 12,000 FEET WITH NO
       SIGNIFICANT WEATHER AND/OR OBSTRUCTIONS TO VISIBILITY.
       CURRENT SKY AND/OR WEATHER CONDITIONS ARE NOT AVAILABLE FOR
       CHILLICOTHE AND FARMINGTON.

MOZ001>031-035>038-043-044-053-054-241500-
...NORTHERN AND WESTERN MISSOURI...

CITY           SKY/WX    TMP DP  RH WIND       PRES   REMARKS
KANSAS CTY INT MOSUNNY   83  72  69 W9        29.93R
KANSAS C DTWN  CLOUDY    85  70  60 SW8       29.91R
LEE`S SUMMIT   CLOUDY    84  72  67 SW10      29.94R
ST JOSEPH      MOSUNNY   83  74  74 S5        29.91R
CHILLICOTHE      N/A     87  76  69 SW5       29.92S HX  97
KIRKSVILLE     MOSUNNY   85  75  72 SW12      29.91F HX  93

$$
MOZ066>068-077>081-088>096-101>105-241500-
...SOUTHWEST MISSOURI...

CITY           SKY/WX    TMP DP  RH WIND       PRES   REMARKS
SPRINGFIELD    SUNNY     85  71  63 SW8       30.00R HX  90
JOPLIN         CLOUDY    82  72  71 SW10      29.99R
BRANSON        MOSUNNY   84  73  70 CALM      30.03R HX  91

$$
MOZ032>034-039>042-045>050-055>058-069>072-241500-
...CENTRAL MISSOURI...

CITY           SKY/WX    TMP DP  RH WIND       PRES   REMARKS
COLUMBIA       SUNNY     85  76  74 SW10      29.96R HX  94
JEFFERSON CITY SUNNY     86  74  67 W6        29.95R HX  94
ROLLA          SUNNY     84  74  71 SW7       29.98R HX  91
SEDALIA        CLOUDY    83  75  77 SW9       29.95S HX  90
WHITEMAN AFB   PTSUNNY   84  75  75 SW10      29.92S HX  92
OSAGE BEACH    SUNNY     84  75  74 W7        29.98R HX  92

$$
MOZ051-052-059>065-241500-
...EAST CENTRAL MISSOURI...

CITY           SKY/WX    TMP DP  RH WIND       PRES   REMARKS
ST LOUIS INTL  MOSUNNY   87  75  67 S8        29.96R HX  96
SPIRIT OF STL  SUNNY     87  77  72 VRB5      29.94R HX  99
ST CHARLES     SUNNY     84  78  82 S5        29.94R HX  95

$$
MOZ072>076-082>087-097>100-106>115-241500-
...SOUTH CENTRAL AND SOUTHEAST MISSOURI...

CITY           SKY/WX    TMP DP  RH WIND       PRES   REMARKS
CAPE GIRARDEAU SUNNY     83  75  77 S6        29.98R HX  90
FARMINGTON     SUNNY     83  77  82 S6        30.01R HX  92
POPLAR BLUFF   SUNNY     82  76  81 S7        29.98R
WEST PLAINS    MOSUNNY   81  71  71 SE6       30.04R

$$



USA.gov is the U.S. government's official web portal to all federal, state and local government web resources and services.